This is the latest recevied weather packets stored in our database for station/object HK6REC-22. If no packets are shown the sender has not sent any weather packets the latest 10 day(s).
| Time | Temp. | Humidity | Pressure | Rain* | Wind** | Luminosity | Snow |
|---|---|---|---|---|---|---|---|
| 1777784557 | 22.22° C | 94% | 1017 hPa | 0 mm | - | - | - |
| 1777782756 | 22.22° C | 95% | 1016 hPa | 0 mm | - | - | - |
| 1777780955 | 16.67° C | 94% | 1017 hPa | 0 mm | - | - | - |
| 1777779154 | 16.67° C | 94% | 1016 hPa | 0 mm | - | - | - |
| 1777777353 | 16.67° C | 93% | 1017 hPa | 0 mm | - | - | - |
| 1777775552 | 17.22° C | 94% | 1016 hPa | 0 mm | - | - | - |
| 1777773751 | 17.22° C | 93% | 1016 hPa | 0 mm | - | - | - |
| 1777771951 | 17.78° C | 94% | 1015 hPa | 0 mm | - | - | - |
| 1777770150 | 17.78° C | 92% | 1015 hPa | 0 mm | - | - | - |
| 1777768349 | 18.33° C | 94% | 1014 hPa | 0 mm | - | - | - |
| 1777766545 | 18.33° C | 94% | 1014 hPa | 0 mm | - | - | - |
| 1777764743 | 18.89° C | 94% | 1014 hPa | 0 mm | - | - | - |
| 1777762942 | 18.89° C | 91% | 1014 hPa | 0 mm | - | - | - |
| 1777761140 | 19.44° C | 92% | 1013 hPa | 0 mm | - | - | - |
| 1777759339 | 23.89° C | 90% | 1013 hPa | 0 mm | - | - | - |
| 1777757538 | 19.44° C | 92% | 1012 hPa | 0 mm | - | - | - |
| 1777755737 | 19.44° C | 91% | 1012 hPa | 0 mm | - | - | - |
| 1777753936 | 23.89° C | 91% | 1011 hPa | 0 mm | - | - | - |
| 1777752135 | 20° C | 90% | 1012 hPa | 0 mm | - | - | - |
| 1777750334 | 20.56° C | 91% | 1012 hPa | 0 mm | - | - | - |
| 1777748533 | 23.89° C | 89% | 1013 hPa | 0 mm | - | - | - |
| 1777746732 | 26.11° C | 88% | 1012 hPa | 0 mm | - | - | - |
| 1777744930 | 27.22° C | 86% | 1012 hPa | 0 mm | - | - | - |
| 1777743129 | 27.22° C | 86% | 1013 hPa | 0 mm | - | - | - |
| 1777741328 | 26.11° C | 87% | 1014 hPa | 0 mm | - | - | - |
* Rain latest hour (hover to see other rain measurements)
** Current wind speed in m/s (hover to see current wind gust speed)